Terminal Aerodrome Forecast
Issued by NWS

Home | Current Version | Previous Version | Text Only | Print | Product List | Glossary On
Versions: 1 2 3 4 5 6 7 8 9 10 11 12 13 14 15 16 17 18 19 20 21 22 23 24
000
FTAK31 PANC 181125
TAFAAQ
TAF
PAAQ 181125Z 1812/1912 VRB04KT P6SM -SHRA OVC045
     FM190200 14010KT P6SM -RA BKN030 OVC045
     FM191000 VRB05KT P6SM -SHRA SCT030 OVC045=

USA.gov is the U.S. government's official web portal to all federal, state and local government web resources and services.